This is the latest recevied weather packets stored in our database for station/object W1SCW. If no packets are shown the sender has not sent any weather packets the latest 10 day(s).
| Time | Temp. | Humidity | Pressure | Rain* | Wind** | Luminosity | Snow |
|---|---|---|---|---|---|---|---|
| 1777338603 | 28.33° C | 78% | 1009.1 hPa | 0 mm | - | 0 W/m² | - |
| 1777338301 | 28.33° C | 77% | 1009.3 hPa | 0 mm | - | 1 W/m² | - |
| 1777337996 | 28.33° C | 76% | 1009.1 hPa | 0 mm | - | 1 W/m² | - |
| 1777337693 | 28.33° C | 75% | 1009.1 hPa | 0 mm | - | 3 W/m² | - |
| 1777337391 | 28.89° C | 74% | 1009 hPa | 0 mm | - | 4 W/m² | - |
| 1777337088 | 28.89° C | 73% | 1008.9 hPa | 0 mm | - | 7 W/m² | - |
| 1777336786 | 28.89° C | 73% | 1009 hPa | 0 mm | - | 11 W/m² | - |
| 1777336484 | 28.89° C | 73% | 1009.1 hPa | 0 mm | - | 13 W/m² | - |
| 1777336181 | 28.89° C | 73% | 1009.2 hPa | 0 mm | - | 15 W/m² | - |
| 1777335878 | 28.89° C | 73% | 1009 hPa | 0 mm | - | 20 W/m² | - |
| 1777335575 | 28.89° C | 72% | 1009 hPa | 0 mm | - | 22 W/m² | - |
| 1777335273 | 28.89° C | 72% | 1008.9 hPa | 0 mm | - | 27 W/m² | - |
| 1777334970 | 29.44° C | 72% | 1008.8 hPa | 0 mm | - | 32 W/m² | - |
| 1777334667 | 29.44° C | 72% | 1008.8 hPa | 0 mm | - | 44 W/m² | - |
| 1777334359 | 29.44° C | 72% | 1008.5 hPa | 0 mm | - | 57 W/m² | - |
| 1777334055 | 29.44° C | 71% | 1008.4 hPa | 0 mm | - | 48 W/m² | - |
| 1777333750 | 29.44° C | 71% | 1008.3 hPa | 0 mm | - | 47 W/m² | - |
| 1777333446 | 30° C | 71% | 1008.4 hPa | 0 mm | - | 62 W/m² | - |
| 1777333144 | 30° C | 71% | 1008.5 hPa | 0 mm | - | 105 W/m² | - |
| 1777332842 | 30° C | 71% | 1008.5 hPa | 0 mm | - | 50 W/m² | - |
| 1777332539 | 30.56° C | 70% | 1008.5 hPa | 0 mm | - | 41 W/m² | - |
| 1777332235 | 30.56° C | 70% | 1008.6 hPa | 0 mm | - | 118 W/m² | - |
| 1777331933 | 30.56° C | 70% | 1008.4 hPa | 0 mm | - | 165 W/m² | - |
| 1777331630 | 30° C | 71% | 1008.6 hPa | 0 mm | - | 219 W/m² | - |
| 1777331327 | 30° C | 71% | 1008.4 hPa | 0 mm | - | 147 W/m² | - |
* Rain latest hour (hover to see other rain measurements)
** Current wind speed in m/s (hover to see current wind gust speed)